TimeEST,TemperatureF,Dew PointF,Humidity,Sea Level PressureIn,VisibilityMPH,Wind Direction,Wind SpeedMPH,Gust SpeedMPH,PrecipitationIn,Events,Conditions,WindDirDegrees,DateUTC
12:55 AM,15.8,4.3,60,30.40,10.0,West,4.6,-,N/A,,Mostly Cloudy,260,2013-01-23 05:55:00
1:55 AM,15.4,6.4,68,30.39,10.0,Calm,Calm,-,N/A,,Mostly Cloudy,0,2013-01-23 06:55:00
2:55 AM,17.1,4.6,58,30.39,10.0,Calm,Calm,-,N/A,,Mostly Cloudy,0,2013-01-23 07:55:00
3:55 AM,14.5,6.1,69,30.39,10.0,SSW,3.5,-,N/A,,Clear,210,2013-01-23 08:55:00
4:55 AM,14.0,7.9,77,30.39,10.0,Calm,Calm,-,N/A,,Clear,0,2013-01-23 09:55:00
5:55 AM,14.4,6.1,70,30.37,10.0,Calm,Calm,-,N/A,,Clear,0,2013-01-23 10:55:00
6:55 AM,13.1,8.1,80,30.37,10.0,Calm,Calm,-,N/A,,Clear,0,2013-01-23 11:55:00
7:55 AM,13.5,8.2,80,30.38,10.0,Calm,Calm,-,N/A,,Mostly Cloudy,0,2013-01-23 12:55:00
8:55 AM,17.4,7.2,64,30.38,10.0,Calm,Calm,-,N/A,,Mostly Cloudy,0,2013-01-23 13:55:00
9:55 AM,22.1,7.5,54,30.38,10.0,South,5.8,-,N/A,,Scattered Clouds,170,2013-01-23 14:55:00
10:55 AM,25.2,7.3,47,30.37,10.0,SSE,4.6,-,N/A,,Mostly Cloudy,150,2013-01-23 15:55:00
11:55 AM,28.9,7.7,41,30.34,10.0,South,10.4,-,N/A,,Scattered Clouds,180,2013-01-23 16:55:00
12:55 PM,32.2,8.6,37,30.28,10.0,South,8.1,-,N/A,,Scattered Clouds,180,2013-01-23 17:55:00
1:55 PM,34.9,9.9,35,30.23,10.0,WSW,6.9,-,N/A,,Scattered Clouds,240,2013-01-23 18:55:00
2:55 PM,37.0,12.9,37,30.20,10.0,South,10.4,-,N/A,,Mostly Cloudy,190,2013-01-23 19:55:00
3:55 PM,38.1,14.2,38,30.17,10.0,SSW,11.5,-,N/A,,Scattered Clouds,210,2013-01-23 20:55:00
4:55 PM,37.9,16.0,41,30.16,10.0,SSW,9.2,-,N/A,,Partly Cloudy,210,2013-01-23 21:55:00
5:55 PM,34.5,17.1,49,30.14,10.0,SW,6.9,-,N/A,,Clear,230,2013-01-23 22:55:00
6:55 PM,29.8,17.1,59,30.14,10.0,West,4.6,-,N/A,,Scattered Clouds,270,2013-01-23 23:55:00
7:55 PM,27.1,16.9,65,30.13,10.0,WSW,5.8,-,N/A,,Clear,250,2013-01-24 00:55:00
8:55 PM,28.9,17.2,62,30.13,10.0,West,5.8,-,N/A,,Mostly Cloudy,260,2013-01-24 01:55:00
9:55 PM,27.9,17.8,66,30.16,10.0,West,5.8,-,N/A,,Mostly Cloudy,270,2013-01-24 02:55:00
10:55 PM,31.3,19.0,61,30.16,10.0,West,12.7,-,N/A,,Clear,280,2013-01-24 03:55:00
11:55 PM,32.0,19.0,59,30.17,10.0,WNW,12.7,-,N/A,,Clear,290,2013-01-24 04:55:00